Regional Weather Roundup
Issued by NWS

Home | Current Version | Previous Version | Graphics & Text | Print | Product List | Glossary On
Versions: 1 2 3 4 5 6 7 8 9 10 11 12 13 14 15 16 17 18 19 20 21 22 23 24 25 26 27
000
ASUS45 KTFX 231910
RWRMT
MONTANA REGIONAL WEATHER ROUNDUP
NATIONAL WEATHER SERVICE GREAT FALLS MT
100 PM MDT MON APR 23 2018

NOTE: "FAIR" INDICATES FEW OR NO CLOUDS BELOW 12000 FEET WITH NO
SIGNIFICANT WEATHER AND/OR OBSTRUCTIONS TO VISIBILITY.

MTZ001>007-043-232000-
WEST OF THE DIVIDE

CITY           SKY/WX    TMP DP  RH WIND       PRES   REMARKS
KALISPELL      FAIR      54  21  27 S3        30.38S
MISSOULA       PTSUNNY   54  24  31 SE15G21   30.35S
BUTTE          CLOUDY    36  28  73 MISG      30.34R
MULLAN PASS    FAIR      41  20  43 VRB3      30.34R
ANACONDA         N/A     37  27  65 N15       30.37R WCI  28
DEER LODGE       N/A     41  27  56 MISG      30.40R
HAMILTON         N/A     48  23  37 NW14G20   30.34S
PLAINS           N/A     57  24  28 SE1       30.34S
RONAN            N/A     54  23  30 NW9       30.37S
THOMPSON FALLS   N/A     58  24  27 E5        30.37F
$$

MTZ008-052>055-232000-
SOUTHWEST MONTANA

CITY           SKY/WX    TMP DP  RH WIND       PRES   REMARKS
BOZEMAN        LGT RAIN  38  34  85 N6        30.35R
DILLON         CLOUDY    38  31  76 NE28G35   30.29R WCI  26
ENNIS          CLOUDY    36  36 100 N29G38    30.30R WCI  23
THREE FORKS      N/A     40  35  82 N13       30.31R
TWIN BRIDGES     N/A     40  33  76 N26       30.23
$$

MTZ009-010-012-014-046-048-049-054-232000-
EAST SLOPES AND CENTRAL MONTANA

CITY           SKY/WX    TMP DP  RH WIND       PRES   REMARKS
CUT BANK       FAIR      48  24  39 NE12      30.42S
GREAT FALLS    PTSUNNY   46  27  47 NE15      30.40F
HELENA         CLOUDY    41  33  73 CALM      30.40R
CHOTEAU          N/A     48  23  37 NE15      30.43S
CONRAD           N/A     49  32  52 N8        30.40
WHITE SULPHUR  FOG       32  32 100 NW14      30.34S VSB 3/4 WCI  22
$$

MTZ011-013-016-021-045-047-050-051-232000-
NORTH CENTRAL MONTANA

CITY           SKY/WX    TMP DP  RH WIND       PRES   REMARKS
HAVRE          FAIR      52  23  32 NE12      30.40F
LEWISTOWN      LGT RAIN  36  35  96 N7        30.37R FOG     WCI  30
N BAR RANCH    MIX PCPN  34  32  93 NW9       30.37R WCI  26
CHINOOK          N/A     52  21  30 NE8       30.39F
$$

MTZ017>020-022>027-061-062-232000-
NORTHEAST MONTANA

CITY           SKY/WX    TMP DP  RH WIND       PRES   REMARKS
GLASGOW        PTSUNNY   48  31  51 N14       30.35S
GLENDIVE       RAIN      39  36  89 N21       30.29F WCI  29
JORDAN           N/A     41  36  82 N9        30.34R
MALTA          SUNNY     46  30  53 N14       30.37F
SIDNEY         LGT RAIN  47  34  60 N15       30.30F
WOLF POINT     CLOUDY    49  33  54 N15       30.33F
PLENTYWOOD       N/A     46  34  61 MISG      30.32F
POPLAR           N/A     46  30  53 MISG      30.33R
SCOBEY           N/A     48  25  41 N16       30.29F
$$

MTZ028>42-056>058-232000-
SOUTHCENTRAL AND SOUTHEAST MONTANA

CITY           SKY/WX    TMP DP  RH WIND       PRES   REMARKS
BAKER          CLOUDY    48  33  56 NE22G29   30.21F
BILLINGS       SNOW      32  32 100 N13       30.35R VSB 1/4 WCI  22
LIVINGSTON     LGT SNOW  34  33  96 E16       30.34R VSB 3/4 WCI  24
MILES CITY     LGT RAIN  38  37  97 N16G24    30.27S WCI  29
BIG TIMBER     FOG       32  32 100 NE6       30.39R VSB 1/2 WCI  26
EKALAKA          N/A     52  27  38 NE15      30.12F
FORSYTH          N/A     34  34 100 NW5       30.30R
LAUREL           N/A     34  32  93 N10       30.37R FOG     WCI  26
$$

REGIONAL REPORTS...DAKOTAS

CITY           SKY/WX    TMP DP  RH WIND       PRES   REMARKS
WILLISTON      CLOUDY    49  33  54 N15       30.31S
MINOT          FAIR      54  34  46 NW15G21   30.25F
DICKINSON      CLOUDY    51  30  44 N21G26    30.20F
BEACH          CLOUDY    48  28  46 N22       30.27S
CROSBY         FAIR      48  34  57 NW15      30.32S
TIOGA          PTSUNNY   46  36  66 N16G22    30.31R
BISMARCK       PTSUNNY   65  32  29 NE14G23   30.19F
GRAND FORKS    FAIR      61  39  44 N9G20     30.19F
FARGO          FAIR      64  46  52 N12       30.17F
BUFFALO SD       N/A     62  37  39 E26G35    30.03
RAPID CITY     FAIR      64  40  41 SE10G23   30.04F
$$

REGIONAL REPORTS...WYOMING/IDAHO/WASHINGTON

CITY           SKY/WX    TMP DP  RH WIND       PRES   REMARKS
GILLETTE       CLOUDY    53  40  61 N17       30.05R
SHERIDAN       SNOW      33  33 100 NW24      30.24R VSB 1/2 WCI  20
BUFFALO WY     SNOW      33  32  96 N18G25    30.18S VSB 1/4 WCI  22
CODY           MIX PCPN  35  31  85 NW17G25   30.27R FOG     WCI  25
YELLOWSTONE LA   N/A     32  28  85 CALM      30.21R
IDAHO FALLS    CLOUDY    41  35  79 SW7       30.23R
SALMON         CLOUDY    51  28  41 NE14G22   30.26R
BOISE          FAIR      58  28  32 NW17G24   30.23F
SPOKANE        FAIR      56  26  31 NE12      30.35F
$$

REGIONAL REPORTS...ALBERTA

CITY           SKY/WX    TMP DP  RH WIND       PRES   REMARKS
CALGARY        MOSUNNY   52  21  30 S14G23    30.37F
CARDSTON         N/A     50  23  34 SE7         N/A
EDMONTON       MOSUNNY   54  21  28 W9        30.35F
FORT MCMURRAY  SUNNY     52  23  32 N5        30.27S
HIGH LEVEL     MOSUNNY   48  21  34 SE8       30.18F
LETHBRIDGE     MOSUNNY   52  21  30 VRB5G20   30.42F
LLOYDMINSTER   MOSUNNY   54  23  30 W15G26    30.33F
MEDICINE HAT   MOSUNNY   55  21  26 NW6       30.41F
MILK RIVER       N/A     52  27  37 NE6         N/A
ONEFOUR          N/A     52  21  30 NE8G21      N/A
PEACE RIVER    PTSUNNY   43  27  52 SW12      30.27F
PINCHER CREEK  SUNNY     48  25  40 SE13      30.41F
WATERTON GATE    N/A     50  19  29 E6          N/A
$$

REGIONAL REPORTS...SASKATCHEWAN

CITY           SKY/WX    TMP DP  RH WIND       PRES   REMARKS
CORONACH         N/A     48  25  40 N17G23      N/A
CYPRESS HILLS    N/A     43  18  36 N9G17       N/A
ESTEVAN        CLOUDY    50  32  50 NW18G24   30.30F
MOOSE JAW        N/A     54  16  22 NW20G29     N/A
PRINCE ALBERT  MOSUNNY   50  25  37 N23G31    30.30R
REGINA         PTSUNNY   52  18  25 N28G38    30.32F
ROCKGLEN         N/A     46  18  31 N17G24      N/A
SASKATOON      MOSUNNY   52  23  32 NW24      30.35S
SWIFT CURRENT  PTSUNNY   50  25  37 NW13      30.36F
VAL MARIE        N/A     50  18  27 NE15G22     N/A
$$




USA.gov is the U.S. government's official web portal to all federal, state and local government web resources and services.